GW5845 Weather Reports


time (UTC)temp
C
wind
direction
speed
KPH
gust
KPH
rain 1hr
cm
rain 24hr
cm
rain mn
cm
humidity
%
barometer
mb
20260508005346 15 41 3.2 4.8 0.00 0.00 0.00 45 1009.5
20260508004842 15 344 8.0 9.7 0.00 0.00 0.00 45 1009.6
20260508004338 15 19 1.6 3.2 0.00 0.00 0.00 44 1009.7
20260508003835 16 199 1.6 3.2 0.00 0.00 0.00 44 1009.6
20260508003332 16 346 3.2 4.8 0.00 0.00 0.00 43 1009.3
20260508002829 16 23 3.2 4.8 0.00 0.00 0.00 44 1009.6
20260508002326 16 59 0.0 1.6 0.00 0.00 0.00 44 1009.1
20260508001822 16 5 6.4 9.7 0.00 0.00 0.00 43 1009.2
20260508001318 16 344 9.7 11.3 0.00 0.00 0.00 42 1009.2
20260508000814 16 22 6.4 9.7 0.00 0.00 0.00 43 1009.0
20260508000312 16 3 14.5 17.7 0.00 0.00 0.00 43 1008.6
20260507235808 16 0 1.6 3.2 0.00 0.00 0.00 43 1008.9
20260507235307 16 34 8.0 11.3 0.00 0.00 0.00 43 1008.6
20260507234802 16 11 6.4 8.0 0.00 0.00 0.00 43 1008.6
20260507234259 17 89 1.6 1.6 0.00 0.00 0.00 42 1008.5
20260507233755 17 321 4.8 8.0 0.00 0.00 0.00 42 1008.7
20260507233253 17 0 8.0 9.7 0.00 0.00 0.00 42 1008.4
20260507232750 17 343 8.0 11.3 0.00 0.00 0.00 41 1008.5
20260507232247 17 314 11.3 14.5 0.00 0.00 0.00 41 1008.4
20260507231744 17 2 8.0 9.7 0.00 0.00 0.00 41 1008.4
20260507231240 17 21 9.7 11.3 0.00 0.00 0.00 41 1008.1
20260507230737 17 286 14.5 22.5 0.00 0.00 0.00 40 1008.2
20260507230235 17 326 6.4 8.0 0.00 0.00 0.00 40 1008.0
20260507225734 17 345 9.7 12.9 0.00 0.00 0.00 40 1008.1
20260507225231 18 344 8.0 11.3 0.00 0.00 0.00 41 1008.0
20260507224726 18 342 9.7 11.3 0.00 0.00 0.00 39 1007.8
20260507224223 19 7 11.3 14.5 0.00 0.00 0.00 39 1007.6
20260507223719 18 332 6.4 8.0 0.00 0.00 0.00 38 1007.5
20260507223216 18 344 8.0 11.3 0.00 0.00 0.00 39 1007.5
20260507222713 19 322 9.7 12.9 0.00 0.00 0.00 37 1007.4
20260507222209 19 341 9.7 11.3 0.00 0.00 0.00 38 1007.3
20260507221706 19 319 8.0 11.3 0.00 0.00 0.00 39 1007.2
20260507221202 19 324 9.7 14.5 0.00 0.00 0.00 38 1007.2
20260507220659 20 352 17.7 25.7 0.00 0.00 0.00 38 1007.3
20260507220158 19 22 16.1 22.5 0.00 0.00 0.00 38 1007.1
20260507215653 20 325 4.8 9.7 0.00 0.00 0.00 40 1007.0
20260507215151 19 352 8.0 12.9 0.00 0.00 0.00 38 1006.9
20260507214648 19 26 9.7 12.9 0.00 0.00 0.00 37 1006.9
20260507214145 19 322 9.7 12.9 0.00 0.00 0.00 39 1007.2
20260507213640 19 17 9.7 11.3 0.00 0.00 0.00 39 1007.0
20260507213138 19 338 12.9 16.1 0.00 0.00 0.00 39 1007.0
20260507212634 20 344 8.0 11.3 0.00 0.00 0.00 38 1006.9
20260507212131 20 8 8.0 11.3 0.00 0.00 0.00 36 1006.9
20260507211628 20 3 19.3 22.5 0.00 0.00 0.00 36 1006.5
20260507211123 20 313 12.9 16.1 0.00 0.00 0.00 37 1006.9
20260507210621 20 25 8.0 11.3 0.00 0.00 0.00 40 1007.0
20260507210117 20 25 6.4 9.7 0.00 0.00 0.00 39 1006.9
20260507205614 20 343 11.3 14.5 0.00 0.00 0.00 39 1006.8
20260507205111 20 0 14.5 20.9 0.00 0.00 0.00 38 1006.8
20260507204607 20 18 9.7 16.1 0.00 0.00 0.00 39 1006.6
20260507204104 20 17 6.4 11.3 0.00 0.00 0.00 38 1006.6
20260507203602 20 301 16.1 22.5 0.00 0.00 0.00 39 1006.9
20260507203059 20 353 9.7 12.9 0.00 0.00 0.00 39 1006.9
20260507202555 20 330 11.3 14.5 0.00 0.00 0.00 40 1006.9
20260507202051 20 356 11.3 14.5 0.00 0.00 0.00 40 1006.9
20260507201547 20 333 6.4 8.0 0.00 0.00 0.00 42 1006.8
20260507201044 20 282 4.8 9.7 0.00 0.00 0.00 42 1006.8
20260507200539 20 38 4.8 8.0 0.00 0.00 0.00 44 1006.9
20260507200035 20 45 3.2 4.8 0.00 0.00 0.00 46 1007.0
20260507195533 21 173 8.0 9.7 0.00 0.00 0.00 42 1006.9
20260507195031 20 66 1.6 1.6 0.00 0.00 0.00 47 1007.1
20260507194526 20 24 4.8 4.8 0.00 0.00 0.00 46 1007.0
20260507194023 20 249 0.0 1.6 0.00 0.00 0.00 48 1007.3
20260507193520 18 179 1.6 3.2 0.00 0.00 0.00 51 1007.1
20260507193017 18 27 3.2 4.8 0.00 0.00 0.00 48 1007.2
20260507192513 18 94 0.0 0.0 0.00 0.00 0.00 51 1007.5
20260507192010 18 82 4.8 8.0 0.00 0.00 0.00 51 1007.5
20260507191505 18 140 1.6 1.6 0.00 0.00 0.00 49 1007.4
20260507191002 18 92 1.6 1.6 0.00 0.00 0.00 52 1007.5
20260507190500 18 96 0.0 0.0 0.00 0.00 0.00 53 1007.5
20260507185959 20 198 9.7 11.3 0.00 0.00 0.00 51 1007.5
20260507185455 20 70 1.6 1.6 0.00 0.00 0.00 49 1007.7
20260507184952 19 191 6.4 9.7 0.00 0.00 0.00 55 1007.8
20260507184450 19 132 4.8 8.0 0.00 0.00 0.00 51 1007.8
20260507183948 20 164 8.0 11.3 0.00 0.00 0.00 51 1007.7
20260507183444 19 165 6.4 9.7 0.00 0.00 0.00 53 1007.7
20260507182942 18 127 4.8 4.8 0.00 0.00 0.00 56 1008.2
20260507182437 18 123 3.2 4.8 0.00 0.00 0.00 54 1007.8
20260507181934 17 53 6.4 11.3 0.00 0.00 0.00 53 1007.9
20260507181430 17 172 6.4 8.0 0.00 0.00 0.00 53 1007.9
20260507180927 18 187 4.8 4.8 0.00 0.00 0.00 52 1008.2
20260507180424 18 185 9.7 12.9 0.00 0.00 0.00 51 1008.3
20260507175919 18 198 11.3 16.1 0.00 0.00 0.00 56 1008.3
20260507175416 17 186 1.6 1.6 0.00 0.00 0.00 56 1008.5
20260507174914 18 191 8.0 11.3 0.00 0.00 0.00 53 1008.2
20260507174411 18 124 1.6 3.2 0.00 0.00 0.00 55 1008.5
20260507173909 17 249 11.3 12.9 0.00 0.00 0.00 52 1008.8
20260507173406 18 195 9.7 12.9 0.00 0.00 0.00 56 1008.5
20260507172902 17 238 8.0 12.9 0.00 0.00 0.00 56 1008.9
20260507172359 17 138 3.2 4.8 0.00 0.00 0.00 55 1009.0
20260507171855 18 116 6.4 9.7 0.00 0.00 0.00 52 1008.8
20260507171351 17 256 6.4 8.0 0.00 0.00 0.00 51 1009.0
20260507170849 17 194 4.8 8.0 0.00 0.00 0.00 57 1008.9
20260507170345 17 170 1.6 3.2 0.00 0.00 0.00 52 1009.3
20260507165841 17 187 9.7 11.3 0.00 0.00 0.00 50 1009.0
20260507165337 17 222 4.8 4.8 0.00 0.00 0.00 50 1009.5
20260507164833 16 235 6.4 8.0 0.00 0.00 0.00 52 1009.4
20260507164330 16 209 9.7 11.3 0.00 0.00 0.00 53 1009.4
20260507163828 16 104 1.6 1.6 0.00 0.00 0.00 51 1009.6
20260507163325 17 95 1.6 4.8 0.00 0.00 0.00 50 1009.9
20260507162821 16 99 1.6 3.2 0.00 0.00 0.00 52 1009.8
20260507162317 17 48 4.8 9.7 0.00 0.00 0.00 49 1009.9
20260507161814 17 221 6.4 8.0 0.00 0.00 0.00 51 1010.0
20260507161311 16 243 3.2 4.8 0.00 0.00 0.00 56 1010.2
20260507160807 16 279 4.8 8.0 0.00 0.00 0.00 55 1010.1
20260507160303 15 139 1.6 1.6 0.00 0.00 0.00 53 1010.4
20260507155759 16 227 17.7 20.9 0.00 0.00 0.00 52 1010.1
20260507155255 15 135 3.2 3.2 0.00 0.00 0.00 52 1010.3
20260507154752 15 226 12.9 16.1 0.00 0.00 0.00 55 1010.3
20260507154250 16 192 14.5 14.5 0.00 0.00 0.00 54 1010.5
20260507153746 15 89 1.6 3.2 0.00 0.00 0.00 54 1010.6
20260507153242 15 106 3.2 4.8 0.00 0.00 0.00 53 1010.6
20260507152739 15 113 8.0 12.9 0.00 0.00 0.00 53 1010.8
20260507152236 15 237 4.8 4.8 0.00 0.00 0.00 54 1011.0
20260507151731 15 88 1.6 3.2 0.00 0.00 0.00 55 1011.1
20260507151228 15 219 4.8 8.0 0.00 0.00 0.00 51 1011.0
20260507150725 14 40 11.3 12.9 0.00 0.00 0.00 56 1011.1
20260507150222 15 141 1.6 1.6 0.00 0.00 0.00 55 1011.2
20260507145718 15 336 4.8 8.0 0.00 0.00 0.00 54 1011.3
20260507145215 15 99 1.6 3.2 0.00 0.00 0.00 56 1011.5
20260507144711 15 128 1.6 3.2 0.00 0.00 0.00 56 1011.7
20260507144209 14 16 0.0 1.6 0.00 0.00 0.00 59 1011.6
20260507143706 13 41 4.8 8.0 0.00 0.00 0.00 55 1011.6
20260507143203 13 54 8.0 11.3 0.00 0.00 0.00 58 1011.7
20260507142658 12 34 3.2 3.2 0.00 0.00 0.00 60 1011.7
20260507142155 12 23 8.0 9.7 0.00 0.00 0.00 59 1011.8
20260507141651 12 60 4.8 8.0 0.00 0.00 0.00 59 1012.0
20260507141148 12 83 4.8 9.7 0.00 0.00 0.00 61 1011.5
20260507140645 12 63 4.8 8.0 0.00 0.00 0.00 61 1011.9
20260507140142 12 71 0.0 1.6 0.00 0.00 0.00 62 1012.1
20260507135639 12 99 1.6 3.2 0.00 0.00 0.00 62 1012.1
20260507135137 12 34 4.8 4.8 0.00 0.00 0.00 63 1012.3
20260507134633 12 66 1.6 1.6 0.00 0.00 0.00 64 1012.3
20260507134129 11 83 3.2 3.2 0.00 0.00 0.00 63 1012.4
20260507133625 11 60 3.2 4.8 0.00 0.00 0.00 66 1012.4
20260507133123 11 53 1.6 3.2 0.00 0.00 0.00 64 1012.6
20260507132620 11 38 3.2 3.2 0.00 0.00 0.00 66 1012.5
20260507132116 11 35 4.8 8.0 0.00 0.00 0.00 66 1012.4
20260507131613 11 59 9.7 11.3 0.00 0.00 0.00 66 1012.7
20260507131111 11 9 1.6 3.2 0.00 0.00 0.00 66 1012.8
20260507130607 11 59 1.6 3.2 0.00 0.00 0.00 68 1012.6
20260507130105 11 53 1.6 4.8 0.00 0.00 0.00 67 1012.4
20260507125603 11 44 1.6 3.2 0.00 0.00 0.00 67 1012.5
20260507125100 11 65 0.0 1.6 0.00 0.00 0.00 68 1012.3
20260507124557 11 37 6.4 9.7 0.00 0.00 0.00 67 1012.7
20260507124055 11 3 8.0 11.3 0.00 0.00 0.00 68 1012.4
20260507123552 11 35 4.8 8.0 0.00 0.00 0.00 69 1012.5
20260507123049 11 38 6.4 9.7 0.00 0.00 0.00 69 1012.2
20260507122545 11 46 4.8 8.0 0.00 0.00 0.00 70 1012.4
20260507122040 11 8 8.0 11.3 0.00 0.00 0.00 70 1012.3
20260507121536 11 52 8.0 9.7 0.00 0.00 0.00 71 1012.2
20260507121032 11 44 4.8 8.0 0.00 0.00 0.00 71 1012.3
20260507120529 11 34 1.6 3.2 0.00 0.00 0.00 72 1012.2
20260507120026 11 37 4.8 4.8 0.00 0.00 0.00 74 1012.1
20260507115522 11 44 3.2 3.2 0.00 0.00 0.00 74 1012.3
20260507115018 11 29 4.8 8.0 0.00 0.00 0.00 74 1012.4
20260507114514 11 37 6.4 8.0 0.00 0.00 0.00 76 1012.0
20260507114011 11 27 4.8 8.0 0.00 0.00 0.00 77 1012.1
20260507113508 11 61 6.4 14.5 0.00 0.00 0.00 77 1012.0
20260507113006 11 38 3.2 4.8 0.00 0.00 0.00 79 1012.0
20260507112503 11 48 4.8 8.0 0.00 0.00 0.00 79 1012.0
20260507112000 11 66 1.6 1.6 0.00 0.00 0.00 80 1011.8
20260507111457 11 58 3.2 3.2 0.00 0.00 0.00 80 1011.6
20260507110953 11 45 4.8 8.0 0.00 0.00 0.00 80 1011.6
20260507110449 11 50 1.6 1.6 0.00 0.00 0.00 80 1011.6
20260507105946 11 47 8.0 9.7 0.00 0.00 0.00 80 1011.7
20260507105443 11 94 3.2 4.8 0.00 0.00 0.00 81 1011.4
20260507104940 11 72 3.2 4.8 0.00 0.00 0.00 80 1011.7
20260507104437 11 71 3.2 3.2 0.00 0.00 0.00 80 1011.6
20260507103932 11 89 1.6 1.6 0.00 0.00 0.00 80 1011.5
20260507103429 12 83 0.0 0.0 0.00 0.00 0.00 79 1011.3
20260507102925 12 84 0.0 0.0 0.00 0.00 0.00 78 1011.4
20260507102422 12 61 1.6 1.6 0.00 0.00 0.00 78 1011.4
20260507101919 12 44 3.2 3.2 0.00 0.00 0.00 78 1011.1
20260507101414 12 70 1.6 1.6 0.00 0.00 0.00 78 1011.3
20260507100910 12 68 0.0 1.6 0.00 0.00 0.00 78 1011.3
20260507100408 12 65 0.0 0.0 0.00 0.00 0.00 77 1011.3
20260507095906 12 65 1.6 1.6 0.00 0.00 0.00 77 1011.1
20260507095403 12 60 1.6 1.6 0.00 0.00 0.00 77 1011.1
20260507094900 12 76 0.0 1.6 0.00 0.00 0.00 77 1011.0
20260507094357 12 63 6.4 8.0 0.00 0.00 0.00 77 1010.8
20260507093853 12 62 1.6 1.6 0.00 0.00 0.00 78 1010.8
20260507093352 12 51 4.8 4.8 0.00 0.00 0.00 78 1011.0
20260507092850 12 56 1.6 1.6 0.00 0.00 0.00 77 1011.0
20260507092345 12 61 1.6 3.2 0.00 0.00 0.00 77 1011.1
20260507091842 12 54 1.6 3.2 0.00 0.00 0.00 77 1010.7
20260507091338 12 68 1.6 1.6 0.00 0.00 0.00 78 1010.8
20260507090834 12 79 0.0 1.6 0.00 0.00 0.00 79 1010.7
20260507090331 12 86 1.6 1.6 0.00 0.00 0.00 79 1010.8
20260507085828 12 131 0.0 0.0 0.00 0.00 0.00 80 1010.4
20260507085325 12 131 0.0 0.0 0.00 0.00 0.00 80 1010.6
20260507084822 12 132 0.0 0.0 0.00 0.00 0.00 80 1011.0
20260507084318 12 132 0.0 0.0 0.00 0.00 0.00 79 1010.5
20260507083816 12 133 0.0 0.0 0.00 0.00 0.00 78 1010.7
20260507083312 12 133 0.0 0.0 0.00 0.00 0.00 78 1010.8
20260507082808 12 157 0.0 0.0 0.00 0.00 0.00 79 1011.0
20260507082306 12 188 1.6 3.2 0.00 0.00 0.00 78 1011.0
20260507081802 12 175 4.8 4.8 0.00 0.00 0.00 78 1011.0
20260507081257 12 166 3.2 3.2 0.00 0.00 0.00 78 1011.0
20260507080754 12 155 3.2 3.2 0.00 0.00 0.00 79 1010.8
20260507080250 12 128 1.6 1.6 0.00 0.00 0.00 78 1011.2
20260507075746 12 92 0.0 0.0 0.00 0.00 0.00 76 1010.8
20260507075242 12 92 0.0 0.0 0.00 0.00 0.00 76 1010.5
20260507074738 12 93 0.0 0.0 0.00 0.00 0.00 75 1010.6
20260507074237 12 97 0.0 0.0 0.00 0.00 0.00 75 1010.5
20260507073733 12 107 1.6 1.6 0.00 0.00 0.00 75 1010.6
20260507073230 12 65 3.2 3.2 0.00 0.00 0.00 75 1010.4
20260507072728 12 76 0.0 0.0 0.00 0.00 0.00 74 1010.4
20260507072225 12 41 1.6 1.6 0.00 0.00 0.00 75 1010.3
20260507071722 12 38 3.2 4.8 0.00 0.00 0.00 75 1010.4
20260507071218 12 14 1.6 3.2 0.00 0.00 0.00 75 1010.4
20260507070715 12 66 0.0 1.6 0.00 0.00 0.00 76 1010.4
20260507070212 12 29 6.4 9.7 0.00 0.00 0.00 76 1010.5
20260507065709 12 51 4.8 8.0 0.00 0.00 0.00 76 1010.1
20260507065206 12 54 1.6 3.2 0.00 0.00 0.00 78 1010.7
20260507064703 12 63 3.2 3.2 0.00 0.00 0.00 77 1010.5
20260507064202 12 53 1.6 3.2 0.00 0.00 0.00 78 1010.7
20260507063659 12 57 8.0 8.0 0.00 0.00 0.00 78 1010.8
20260507063155 12 61 1.6 1.6 0.00 0.00 0.00 79 1010.4
20260507062652 12 60 6.4 8.0 0.00 0.00 0.00 80 1010.7
20260507062150 12 53 4.8 4.8 0.00 0.00 0.00 80 1010.7
20260507061648 12 21 4.8 4.8 0.00 0.00 0.00 81 1011.2
20260507061145 12 24 8.0 11.3 0.00 0.00 0.00 81 1011.1
20260507060643 12 49 3.2 3.2 0.00 0.00 0.00 81 1011.1
20260507060139 12 43 6.4 11.3 0.00 0.00 0.00 81 1011.0
20260507055635 12 57 6.4 8.0 0.00 0.00 0.00 80 1011.1
20260507055131 12 43 4.8 8.0 0.00 0.00 0.00 81 1011.2
20260507054627 12 46 6.4 9.7 0.00 0.00 0.00 81 1011.3
20260507054124 12 88 1.6 3.2 0.00 0.00 0.00 82 1011.3
20260507053622 12 59 3.2 4.8 0.00 0.00 0.00 81 1011.4
20260507053120 12 62 1.6 3.2 0.00 0.00 0.00 82 1010.8
20260507052618 12 73 0.0 1.6 0.00 0.00 0.00 82 1010.7
20260507052114 13 15 6.4 11.3 0.00 0.00 0.00 82 1010.6
20260507051612 13 31 6.4 9.7 0.00 0.00 0.00 83 1010.7
20260507051109 13 74 6.4 9.7 0.00 0.00 0.00 83 1010.5
20260507050605 13 353 9.7 12.9 0.00 0.00 0.00 83 1010.2
20260507045559 13 37 3.2 9.7 0.00 0.38 0.38 83 1010.7
20260507045056 13 45 16.1 22.5 0.00 0.38 0.38 83 1010.8
20260507044552 13 33 14.5 20.9 0.00 0.38 0.38 82 1010.5
20260507044050 13 44 8.0 11.3 0.00 0.38 0.38 81 1010.3
20260507043545 14 31 3.2 4.8 0.00 0.38 0.38 81 1010.3
20260507043043 14 24 4.8 4.8 0.00 0.38 0.38 81 1010.2
20260507042538 14 34 6.4 9.7 0.00 0.38 0.38 81 1010.1
20260507042034 14 30 6.4 8.0 0.00 0.38 0.38 81 1010.1
20260507041531 14 71 8.0 11.3 0.00 0.38 0.38 81 1009.5
20260507041028 14 85 3.2 4.8 0.00 0.38 0.38 81 1009.8
20260507040525 14 69 4.8 8.0 0.00 0.38 0.38 81 1010.3
20260507040020 14 17 6.4 8.0 0.00 0.38 0.38 82 1010.1
20260507035517 15 78 0.0 1.6 0.00 0.38 0.38 81 1009.9
20260507035014 15 63 6.4 8.0 0.00 0.38 0.38 81 1010.4
20260507034510 15 56 4.8 8.0 0.00 0.38 0.38 81 1010.0
20260507034009 15 74 1.6 3.2 0.00 0.38 0.38 80 1010.2
20260507033506 15 92 1.6 1.6 0.00 0.38 0.38 80 1010.3
20260507033003 15 52 4.8 4.8 0.00 0.38 0.38 80 1010.3
20260507032500 15 38 8.0 9.7 0.00 0.38 0.38 80 1010.4
20260507031956 15 53 9.7 11.3 0.00 0.38 0.38 81 1010.6
20260507031452 15 33 4.8 4.8 0.00 0.38 0.38 81 1010.4
20260507030949 15 354 4.8 8.0 0.00 0.38 0.38 81 1010.3
20260507030446 15 57 4.8 8.0 0.00 0.38 0.38 81 1009.8
20260507025943 15 54 3.2 8.0 0.00 0.38 0.38 81 1009.6
20260507025441 15 84 1.6 3.2 0.00 0.38 0.38 81 1010.0
20260507024939 15 77 1.6 3.2 0.00 0.38 0.38 80 1009.8
20260507024436 15 50 4.8 8.0 0.00 0.38 0.38 81 1009.8
20260507023931 15 49 12.9 14.5 0.00 0.38 0.38 80 1010.3
20260507023428 15 19 11.3 17.7 0.00 0.38 0.38 81 1010.2
20260507022925 15 32 8.0 9.7 0.00 0.38 0.38 82 1010.1
20260507022423 15 30 9.7 12.9 0.00 0.38 0.38 82 1010.0
20260507021918 16 86 1.6 1.6 0.00 0.38 0.38 83 1009.7
20260507021413 15 62 4.8 9.7 0.00 0.38 0.38 82 1009.5
20260507020912 16 39 1.6 4.8 0.00 0.38 0.38 82 1009.1
20260507020408 16 71 4.8 8.0 0.00 0.38 0.38 82 1009.1
20260507015905 16 66 3.2 4.8 0.00 0.38 0.38 82 1008.8
20260507015403 16 73 6.4 9.7 0.00 0.38 0.38 83 1009.4
20260507014900 16 94 4.8 8.0 0.00 0.38 0.38 83 1009.3
20260507014356 16 91 1.6 3.2 0.00 0.38 0.38 82 1009.7
20260507013853 16 105 4.8 9.7 0.00 0.38 0.38 83 1009.2
20260507013350 16 88 6.4 9.7 0.00 0.38 0.38 83 1009.1
20260507012847 17 37 14.5 20.9 0.00 0.38 0.38 83 1009.6
20260507012343 17 77 4.8 9.7 0.00 0.38 0.38 83 1009.1
20260507011841 17 83 1.6 3.2 0.00 0.38 0.38 83 1008.6
20260507011338 17 80 8.0 11.3 0.00 0.38 0.38 85 1008.7
20260507010837 17 108 3.2 4.8 0.00 0.38 0.38 86 1008.9
20260507010333 17 103 0.0 0.0 0.00 0.38 0.38 86 1008.9
20260507005830 17 109 3.2 3.2 0.00 0.38 0.38 85 1008.6